Change the Weather History Date:

Monday, July 1, 2013

  Actual Average (KPAH) Record (KPAH)
Temperature  
Mean Temperature 68 °F 79 °F  
Max Temperature 73 °F 89 °F 105 °F (2012)
Min Temperature 64 °F 68 °F 54 °F (1948)
Degree Days  
Heating Degree Days 0 0  
Month to date heating degree days 0  
Since 1 June heating degree days 4  
Since 1 July heating degree days 0  
Cooling Degree Days 4 14  
Month to date cooling degree days 14  
Year to date cooling degree days 506  
Since 1 June cooling degree days 334  
Growing Degree Days 18 (Base 50)    
Moisture  
Dew Point 66 °F    
Average Humidity 93    
Maximum Humidity 100    
Minimum Humidity 72    
Precipitation  
Precipitation 0.01 in 0.15 in 1.62 in (1972)
Month to date precipitation 0.15  
Year to date precipitation 25.43  
Snow  
Snow 0.00 in 0.00 in - ()
Month to date snowfall 0.0  
Since 1 June snowfall 0.0  
Since 1 July snowfall 0.0  
Snow Depth -    
Sea Level Pressure  
Sea Level Pressure 29.87 in    
Wind  
Wind Speed 5 mph (NNW)    
Max Wind Speed 14 mph    
Max Gust Speed 20 mph    
Visibility 10 miles    
Events Rain , Thunderstorm    
T = Trace of Precipitation, MM = Missing Value Source: NWS Daily Summary

Daily Weather History Graph

Daily Weather History Graph

Search for Another Location

Airport or City:

Trip Planner

Search our weather history database for the weather conditions in past years. The results will help you decide how hot, cold, wet, or windy it might be!

Date:

Astronomy

Jul. 01, 2013 Rise Set
Actual Time 5:38 AM CDT 8:19 PM CDT
Civil Twilight 5:07 AM CDT 8:49 PM CDT
Nautical Twilight 4:29 AM CDT 9:28 PM CDT
Astronomical Twilight 3:46 AM CDT 10:11 PM CDT
Moon 1:03 AM CDT (7/1) 2:38 PM CDT (7/1)
Length of Visible Light 15h 42m
Length of Day
14h 40m
Waning Crescent, 35% of the Moon is Illuminated
Jul 1
Waning Crescent
Jul 8
New
Jul 15
First Quarter
Jul 22
Full
Jul 29
Last Quarter

Hourly Weather History & Observations

Time (CDT) Temp. Dew Point Humidity Pressure Visibility Wind Dir Wind Speed Gust Speed Precip Events Conditions
12:15 AM 67.3 °F 67.3 °F 100% 29.83 in 10.0 mi Calm Calm - N/A   Overcast
12:35 AM 67.5 °F 67.5 °F 100% 29.83 in 10.0 mi Calm Calm - N/A   Overcast
12:55 AM 67.6 °F 67.6 °F 100% 29.83 in 10.0 mi NNW 4.6 mph - N/A   Overcast
1:15 AM 67.8 °F 67.8 °F 100% 29.82 in 10.0 mi Calm Calm - N/A   Overcast
1:35 AM 67.6 °F 67.6 °F 100% 29.82 in 10.0 mi North 3.5 mph - N/A   Overcast
1:55 AM 67.5 °F 67.5 °F 100% 29.81 in 10.0 mi Calm Calm - N/A   Mostly Cloudy
2:15 AM 67.3 °F 67.3 °F 100% 29.81 in 10.0 mi NNW 4.6 mph - N/A   Mostly Cloudy
2:35 AM 67.1 °F 67.1 °F 100% 29.81 in 10.0 mi North 3.5 mph - N/A   Overcast
2:55 AM 67.1 °F 67.1 °F 100% 29.81 in 10.0 mi NNW 6.9 mph - N/A   Overcast
3:15 AM 66.9 °F 66.9 °F 100% 29.81 in 10.0 mi NNW 3.5 mph - N/A   Overcast
3:35 AM 66.7 °F 66.7 °F 100% 29.81 in 10.0 mi NNW 5.8 mph - N/A   Overcast
3:55 AM 66.7 °F 66.7 °F 100% 29.81 in 10.0 mi NNW 3.5 mph - N/A   Mostly Cloudy
4:15 AM 66.7 °F 66.7 °F 100% 29.82 in 10.0 mi NNW 5.8 mph - N/A   Mostly Cloudy
4:35 AM 66.9 °F 66.9 °F 100% 29.82 in 10.0 mi Calm Calm - N/A   Overcast
4:55 AM 67.1 °F 67.1 °F 100% 29.82 in 10.0 mi NNW 5.8 mph - N/A   Overcast
5:15 AM 67.1 °F 67.1 °F 100% 29.83 in 10.0 mi North 5.8 mph - N/A   Overcast
5:35 AM 67.1 °F 67.1 °F 100% 29.83 in 10.0 mi North 5.8 mph - N/A   Overcast
5:55 AM 67.1 °F 67.1 °F 100% 29.84 in 10.0 mi North 6.9 mph - N/A   Overcast
6:15 AM 67.1 °F 67.1 °F 100% 29.84 in 10.0 mi North 4.6 mph - N/A   Overcast
6:35 AM 67.1 °F 67.1 °F 100% 29.84 in 10.0 mi NNW 5.8 mph - N/A   Overcast
6:55 AM 67.3 °F 67.3 °F 100% 29.85 in 10.0 mi NNW 5.8 mph - N/A   Overcast
7:15 AM 67.3 °F 67.3 °F 100% 29.85 in 10.0 mi North 4.6 mph - N/A Thunderstorm Overcast
7:35 AM 67.5 °F 66.7 °F 98% 29.85 in 10.0 mi North 8.1 mph - N/A   Overcast
7:55 AM 67.6 °F 66.6 °F 96% 29.86 in 10.0 mi North 4.6 mph - N/A   Overcast
8:15 AM 68.0 °F 66.6 °F 95% 29.86 in 10.0 mi North 6.9 mph - N/A   Overcast
8:35 AM 68.0 °F 66.4 °F 95% 29.86 in 10.0 mi North 4.6 mph - N/A   Overcast
8:55 AM 68.0 °F 66.2 °F 94% 29.87 in 10.0 mi North 9.2 mph - N/A   Overcast
9:15 AM 68.0 °F 66.2 °F 94% 29.87 in 10.0 mi North 6.9 mph - N/A   Overcast
9:35 AM 68.2 °F 66.4 °F 94% 29.87 in 10.0 mi North 6.9 mph - N/A   Overcast
9:55 AM 68.0 °F 66.2 °F 94% 29.87 in 10.0 mi NNW 6.9 mph - N/A Thunderstorm Unknown
10:15 AM 66.9 °F 66.9 °F 100% 29.87 in 7.0 mi NNW 10.4 mph - 0.01 in   Drizzle
10:35 AM 66.6 °F 66.4 °F 99% 29.87 in 10.0 mi North 8.1 mph - 0.01 in   Overcast
10:55 AM 67.8 °F 65.8 °F 93% 29.88 in 10.0 mi North 10.4 mph - 0.01 in   Overcast
11:15 AM 68.9 °F 64.9 °F 87% 29.88 in 10.0 mi North 5.8 mph - N/A   Overcast
11:35 AM 68.5 °F 64.8 °F 88% 29.88 in 10.0 mi North 5.8 mph - N/A   Overcast
11:55 AM 69.1 °F 65.5 °F 88% 29.88 in 10.0 mi North 3.5 mph - N/A   Overcast
12:15 PM 69.3 °F 64.9 °F 86% 29.88 in 10.0 mi North 5.8 mph - N/A   Overcast
12:35 PM 70.7 °F 64.8 °F 81% 29.87 in 10.0 mi North 6.9 mph - N/A   Overcast
12:55 PM 71.6 °F 65.1 °F 80% 29.87 in 10.0 mi North 6.9 mph - N/A   Overcast
1:15 PM 72.1 °F 63.0 °F 73% 29.87 in 10.0 mi North 12.7 mph - N/A   Overcast
1:35 PM 72.9 °F 63.7 °F 73% 29.87 in 10.0 mi NNW 12.7 mph - N/A   Overcast
1:55 PM 73.2 °F 63.7 °F 72% 29.87 in 10.0 mi NNW 13.8 mph 17.3 mph N/A   Mostly Cloudy
2:15 PM 70.0 °F 63.0 °F 78% 29.88 in 10.0 mi NNW 6.9 mph - N/A   Overcast
2:35 PM 68.0 °F 66.4 °F 95% 29.88 in 4.0 mi NNW 9.2 mph - N/A   Overcast
2:55 PM 68.0 °F 67.6 °F 99% 29.88 in 3.0 mi NNW 9.2 mph - N/A Rain Rain
3:15 PM 68.0 °F 67.1 °F 97% 29.88 in 10.0 mi NNW 6.9 mph - N/A   Overcast
3:35 PM 68.0 °F 66.7 °F 96% 29.88 in 10.0 mi North 9.2 mph 18.4 mph N/A   Overcast
3:55 PM 68.7 °F 65.5 °F 89% 29.87 in 10.0 mi NNW 10.4 mph - N/A   Overcast
4:15 PM 69.6 °F 63.1 °F 80% 29.86 in 10.0 mi North 11.5 mph - N/A   Overcast
4:35 PM 70.0 °F 62.6 °F 77% 29.86 in 10.0 mi North 9.2 mph 17.3 mph N/A   Overcast
4:55 PM 70.9 °F 62.8 °F 75% 29.87 in 10.0 mi North 9.2 mph 19.6 mph N/A   Overcast
5:15 PM 71.2 °F 62.8 °F 75% 29.88 in 10.0 mi NNW 13.8 mph 19.6 mph N/A   Overcast
5:35 PM 70.3 °F 62.6 °F 76% 29.88 in 10.0 mi North 9.2 mph - N/A   Overcast
5:55 PM 69.4 °F 62.2 °F 78% 29.89 in 10.0 mi North 9.2 mph - N/A   Overcast
6:15 PM 69.3 °F 62.2 °F 78% 29.89 in 10.0 mi NNW 4.6 mph - N/A   Overcast
6:35 PM 68.9 °F 62.6 °F 80% 29.90 in 10.0 mi NNW 6.9 mph - N/A   Overcast
6:55 PM 68.9 °F 62.6 °F 80% 29.90 in 10.0 mi NNW 5.8 mph - N/A   Overcast
7:15 PM 68.9 °F 63.0 °F 81% 29.91 in 10.0 mi NNW 3.5 mph - N/A   Overcast
7:35 PM 68.5 °F 63.1 °F 83% 29.91 in 10.0 mi Calm Calm - N/A   Overcast
7:55 PM 68.2 °F 63.5 °F 85% 29.91 in 10.0 mi Calm Calm - N/A   Overcast
8:15 PM 67.8 °F 64.4 °F 89% 29.91 in 10.0 mi Calm Calm - N/A   Mostly Cloudy
8:35 PM 67.3 °F 67.1 °F 99% 29.90 in 10.0 mi WNW 3.5 mph - N/A   Mostly Cloudy
8:55 PM 67.1 °F 67.1 °F 100% 29.90 in 10.0 mi NW 4.6 mph - N/A   Overcast
9:15 PM 66.7 °F 66.7 °F 100% 29.90 in 10.0 mi NW 3.5 mph - N/A   Overcast
9:35 PM 66.2 °F 66.2 °F 100% 29.90 in 10.0 mi NW 3.5 mph - N/A   Overcast
9:55 PM 65.8 °F 65.8 °F 100% 29.90 in 10.0 mi WNW 4.6 mph - N/A   Scattered Clouds
10:15 PM 65.8 °F 65.8 °F 100% 29.90 in 10.0 mi West 3.5 mph - N/A   Clear
10:35 PM 65.5 °F 65.5 °F 100% 29.91 in 10.0 mi Calm Calm - N/A   Clear
10:55 PM 65.3 °F 65.3 °F 100% 29.90 in 10.0 mi Calm Calm - N/A   Clear
11:15 PM 64.9 °F 64.9 °F 100% 29.90 in 10.0 mi Calm Calm - N/A   Clear
11:35 PM 65.3 °F 65.3 °F 100% 29.90 in 10.0 mi Calm Calm - N/A   Mostly Cloudy
11:55 PM 65.7 °F 65.7 °F 100% 29.90 in 10.0 mi Calm Calm - N/A   Overcast